GFSFLT1_con_sbcape_102.txt.gz
CAPE
0 0 0 0 0 0 847 1934 2114 2224 1937 1783 1205 991 881 844 949 1047 615 654 477 426 281 308 331 330 380 269 150 41 1 3
0 0 0 0 0 0 0 1593 1926 2211 1981 1741 1296 1312 1150 846 787 791 732 436 381 317 267 319 440 452 348 236 131 81 34 20
0 0 0 0 0 0 0 1256 1837 2188 1983 1866 1529 1549 1067 998 786 826 1103 780 510 386 346 388 435 381 262 162 67 77 47 54
0 0 0 0 0 0 0 607 1797 2090 2041 1752 903 650 387 552 830 890 780 784 631 544 420 460 378 313 166 98 36 39 11 15
0 3 0 0 0 0 0 271 1770 2004 1946 1596 1322 1318 1167 1138 1006 898 710 533 602 411 358 295 354 278 170 131 79 36 5 5
0 0 0 0 0 0 428 1180 1905 1989 1741 1568 1314 1168 1015 562 551 677 578 506 409 299 360 250 285 238 171 121 79 9 1 3
0 0 0 0 0 0 46 2098 2066 1789 1678 1389 1251 956 556 546 575 509 467 466 386 299 265 272 219 192 160 102 35 13 20 0
0 0 0 0 0 0 0 1987 1955 1628 1472 1189 955 636 378 513 389 357 368 308 304 339 229 208 178 126 90 43 25 4 14 9
1 2 1 0 0 0 0 675 1821 1434 1023 824 674 494 381 316 147 71 194 197 154 171 224 187 142 127 107 33 9 12 8 9
0 0 1 1 1 0 0 2 30 945 722 619 348 236 284 240 52 65 86 75 88 101 63 48 114 116 68 19 19 16 17 13
0 1 0 1 2 1 1 0 3 5 272 417 486 348 172 78 30 84 33 6 5 0 1 27 63 46 30 26 20 30 14 9
0 0 1 1 2 0 0 0 2 3 4 28 31 2 0 0 7 0 0 0 0 0 1 6 17 7 6 8 23 16 15 8
0 0 1 1 2 0 5 3 1 3 4 0 8 4 0 0 0 0 0 0 0 0 0 0 0 1 1 7 4 1 1 11
1 1 2 3 3 2 1 2 1 3 1 0 0 7 0 0 0 0 0 0 0 0 0 1 2 1 4 6 2 0 8 2
2 2 3 3 4 3 3 2 2 6 6 1 0 5 0 0 0 0 0 0 1 1 0 1 0 0 1 1 1 8 6 0
5 4 4 4 6 4 4 3 4 8 3 1 2 0 0 0 0 0 0 0 0 1 0 0 0 0 0 0 1 2 6 3
4 4 5 6 7 6 6 5 4 1 5 3 2 2 0 0 1 3 0 0 0 0 0 0 0 0 1 1 1 0 0 0
3 5 6 9 7 5 6 6 4 2 1 2 2 2 2 0 0 0 0 1 0 0 1 0 0 0 0 1 1 0 0 0
2 3 3 7 5 3 2 2 3 4 2 1 3 3 3 2 1 1 1 1 1 2 1 1 1 1 0 0 0 0 0 0

GFSFLT1_con_sbcape_105.txt.gz
CAPE
0 0 0 0 0 0 0 1458 2310 2254 2008 1464 1251 955 1102 939 989 954 809 854 461 350 137 119 103 135 204 208 169 140 106 89
0 0 0 0 0 0 0 283 2168 2182 2093 1787 1486 1340 1210 1019 1031 1013 659 801 494 419 236 183 176 161 233 267 226 161 58 17
0 0 0 0 0 0 0 87 1618 2063 2185 2062 1780 1547 1253 1170 1012 889 854 631 438 452 395 262 255 232 206 253 209 186 119 30
0 0 0 0 0 0 0 9 790 1873 2126 1996 956 694 757 824 770 966 939 649 443 334 370 373 339 369 303 278 198 157 148 101
0 0 0 0 0 0 0 0 643 1592 2001 1883 1446 1471 1359 1297 1198 1100 1158 834 602 493 302 357 391 383 328 242 178 129 112 70
0 0 0 0 0 0 0 0 242 1334 1940 1869 1568 1410 1258 964 999 966 934 748 577 533 354 331 349 353 292 188 132 94 69 64
3 2 0 0 0 0 0 523 743 1629 2012 1828 1539 1400 1038 888 915 983 774 540 550 478 369 357 309 311 272 211 150 92 60 19
8 12 5 2 0 0 0 368 1941 1867 2029 1831 1568 1320 811 791 854 924 734 506 319 346 298 280 268 318 285 241 156 99 52 10
12 15 11 6 2 0 0 0 59 2034 1892 1716 1471 876 525 559 556 670 410 372 388 225 210 232 280 269 255 227 174 104 55 31
2 4 9 9 6 2 1 0 0 0 1599 1397 1098 440 225 282 228 225 227 85 0 38 148 198 191 218 217 141 107 58 54 41
1 1 3 6 7 7 1 1 1 2 36 794 427 263 175 56 6 0 0 0 0 0 0 31 72 131 126 119 102 51 56 24
2 1 2 2 7 4 9 2 2 5 3 6 218 145 53 18 13 0 0 0 0 0 0 2 16 61 85 109 110 89 61 46
2 1 2 6 4 2 4 12 4 3 3 1 21 29 23 24 1 0 0 0 0 0 0 1 1 1 10 42 55 32 19 34
1 1 2 2 3 4 4 3 13 7 6 3 3 1 5 0 0 0 0 0 0 0 0 0 0 0 0 0 1 10 9 4
2 2 3 4 4 7 4 4 3 4 3 2 2 3 0 0 0 0 0 0 0 0 0 0 0 0 0 1 3 4 3 10
3 4 5 4 5 3 3 3 4 5 7 3 3 7 2 0 0 0 0 0 0 0 0 0 0 0 0 0 1 3 6 1
1 4 4 7 7 5 3 3 5 4 2 4 5 2 1 1 2 1 0 0 0 0 0 0 0 0 0 1 1 1 1 7
2 4 4 7 7 5 3 3 2 4 3 3 2 3 3 2 2 1 1 1 0 0 0 0 1 0 0 1 0 0 0 0
2 3 2 3 4 3 2 1 2 1 2 4 3 2 2 3 1 2 2 2 2 2 1 1 1 1 0 0 0 0 0 0

GFSFLT1_con_sbcape_108.txt.gz
CAPE
0 0 0 0 0 0 0 12 1569 1704 1678 1354 1130 863 785 797 839 735 817 900 788 768 451 333 163 110 70 40 37 71 101 103
0 0 0 0 0 0 0 0 34 1780 1913 1755 1612 1159 1164 966 864 859 924 934 763 700 405 218 122 125 99 63 77 75 39 33
0 0 0 0 0 0 0 0 0 1172 1459 1856 1767 1687 1468 1306 1086 891 842 909 696 633 470 296 149 136 153 131 110 104 65 21
0 0 0 0 0 0 0 0 0 434 1391 1965 1675 1573 1299 1068 969 987 927 841 729 655 534 383 247 133 218 191 163 133 122 40
0 0 0 0 0 0 0 0 0 459 1649 1911 1711 1585 1511 1199 1191 1102 921 808 740 707 626 404 279 261 245 193 181 154 82 106
0 0 0 0 0 0 0 0 0 0 1499 1747 1846 1658 1392 1241 1328 1039 970 762 744 699 595 524 422 354 297 229 184 163 87 105
0 0 0 0 0 0 0 0 0 0 1379 1822 1816 1598 1309 1107 1314 1156 913 1018 845 686 586 500 464 401 367 239 175 141 125 95
5 2 2 3 2 1 1 0 0 543 1356 1841 1780 1477 1203 1130 1206 1154 942 817 815 724 493 494 433 441 356 256 183 186 129 138
5 4 6 5 6 4 3 3 0 0 1236 1870 1863 1378 973 927 994 996 862 575 748 517 402 328 399 370 303 226 225 215 188 165
7 5 5 5 10 11 11 7 3 1 1 1348 1728 1310 884 716 676 785 744 456 245 257 288 316 305 238 205 188 249 216 204 182
8 5 4 3 4 8 14 7 5 3 4 1 1174 749 347 242 237 375 342 258 73 178 99 128 99 102 98 129 201 199 159 139
6 6 3 0 3 4 5 11 4 6 2 1 181 439 225 195 229 183 132 4 6 21 14 0 2 26 29 47 139 149 97 104
4 5 2 1 4 10 12 19 20 6 6 6 108 175 159 112 79 11 0 0 0 0 0 0 0 0 0 29 88 109 78 72
2 1 3 4 3 5 6 7 9 17 14 8 5 5 59 32 2 1 1 1 0 1 0 0 0 0 0 0 0 0 3 32
2 1 2 4 5 4 11 4 5 7 4 9 5 4 3 1 1 1 0 0 0 0 0 0 0 0 0 0 0 0 2 4
2 3 4 5 4 3 2 2 3 5 4 2 4 5 4 1 2 2 1 0 0 0 0 0 0 0 0 0 0 0 1 1
3 2 3 4 4 5 3 3 3 2 5 6 5 4 4 3 2 2 1 1 1 1 0 0 0 0 0 0 0 1 0 1
4 4 5 4 4 5 3 2 2 2 2 0 2 1 1 1 2 1 2 2 1 2 2 2 1 1 0 0 1 0 0 1
2 2 2 2 3 1 1 1 1 2 2 2 1 0 0 1 1 1 2 2 2 3 2 3 3 2 1 0 0 0 0 1

GFSFLT1_con_sbcape_111.txt.gz
CAPE
0 0 0 0 0 0 0 0 0 1469 2033 2281 2027 1922 1862 1826 1728 1477 1436 1477 1157 1374 1353 963 810 581 486 378 567 532 771 866
0 0 0 0 0 0 0 0 0 123 1345 1759 1638 1368 1509 1761 1484 1510 1354 1243 1078 1196 1394 765 720 665 466 282 342 367 261 244
0 0 0 0 0 0 0 0 0 0 587 1523 1716 1613 1571 1760 1393 1218 1221 1190 1097 981 1056 763 629 684 426 306 287 242 285 192
2 0 0 0 0 0 0 0 0 0 0 890 2009 2103 2166 1504 1284 1337 1105 1215 1130 925 903 754 586 580 517 447 355 351 295 108
1 1 0 1 0 0 0 0 0 0 0 93 1733 1766 1554 1406 1599 1579 1379 1157 1113 941 775 733 507 496 633 521 421 417 451 182
0 1 1 0 0 0 0 0 0 0 0 110 1844 2052 1983 1902 2153 2051 1534 1115 1049 865 795 650 557 658 700 493 457 430 548 376
0 0 0 1 0 1 0 0 0 1 104 144 1715 2196 2060 2175 2203 1816 1476 1386 978 890 729 569 574 530 653 430 479 478 343 317
2 2 3 4 5 4 6 7 3 1 3 233 1677 2261 2422 2315 2107 1974 1547 1213 924 798 808 596 561 523 580 608 469 432 382 305
6 6 8 6 10 9 10 14 5 4 4 84 1519 1641 1764 2161 2092 1949 1762 1471 1077 869 701 667 624 549 509 566 500 412 348 300
8 8 10 7 9 7 21 13 10 8 5 3 1026 1697 1684 1847 1917 1994 1942 1593 1108 876 847 503 513 478 377 514 582 339 252 292
10 9 12 8 10 5 15 22 19 9 5 7 2 1844 1465 1442 1683 1703 1655 1494 941 752 690 531 437 342 421 337 403 310 239 260
9 9 9 8 7 7 8 6 12 11 6 7 4 1038 1113 1116 1110 1582 1435 951 534 537 544 859 468 244 278 244 257 162 184 240
12 6 5 9 7 5 6 3 6 7 13 10 10 8 594 547 482 334 296 237 403 449 352 205 114 102 104 93 42 70 140 268
5 4 4 4 6 6 4 5 6 5 13 17 12 7 2 188 102 55 54 73 53 58 84 95 36 3 1 0 0 1 22 30
5 3 4 6 4 3 2 5 4 4 7 7 15 12 13 5 6 6 2 1 1 2 2 0 1 0 0 0 0 1 1 2
5 6 5 5 4 4 3 4 4 1 4 3 6 7 9 10 6 3 5 1 2 2 4 2 2 0 0 1 0 0 0 0
4 3 5 5 6 5 4 5 5 2 1 5 5 4 4 5 6 5 8 6 3 1 2 3 3 1 1 0 0 2 2 2
4 5 7 8 7 8 4 5 3 2 2 1 0 3 1 0 3 2 3 3 2 1 2 2 4 3 2 0 0 1 1 2
3 3 3 9 7 9 4 2 2 2 2 3 1 1 1 0 0 0 0 0 0 2 3 3 3 4 4 1 0 1 2 2

GFSFLT1_con_sbcape_114.txt.gz
CAPE
0 0 0 0 0 0 0 0 0 0 718 1872 1937 2327 2551 2321 2291 2373 2554 2903 2801 2965 2313 2348 2115 1569 1747 2204 2127 1866 1893 1596
0 0 0 0 0 0 0 0 0 0 0 418 1027 1966 2146 2408 2536 2476 2492 2808 2845 2713 2137 2142 1648 1507 1588 1776 1770 1897 2024 1818
0 0 0 0 0 0 0 0 0 0 0 0 717 1271 1652 1799 2369 2797 2635 2448 2498 2679 2377 2082 1607 1458 1271 1437 1345 1124 1176 1342
0 0 0 0 0 0 0 0 0 0 0 0 0 884 1395 1691 2279 2877 2917 2396 2394 2727 2262 1877 1488 1464 1060 1073 1318 1081 813 796
0 0 0 0 0 0 0 0 0 0 0 0 0 22 954 1568 1771 2152 2554 2809 2464 2280 2097 1896 1498 1377 1110 970 1118 1342 1086 601
0 0 0 0 0 0 3 3 1 2 6 6 5 5 1126 1322 2036 1943 2164 2276 1977 1910 1872 1934 1485 1509 1134 973 1010 1198 1113 937
2 2 2 1 1 1 2 3 1 2 5 10 15 199 482 1442 1657 2146 2386 2306 1652 1518 1464 1587 1521 1371 1116 956 981 1176 1101 957
7 7 4 5 3 3 1 1 3 1 7 8 12 76 586 1943 1679 2364 2392 1972 1470 1405 1378 1346 1308 1261 1183 835 761 990 1015 778
8 10 13 10 8 6 10 8 5 3 11 11 9 54 922 1800 2039 2048 2305 2034 1627 1390 1491 1355 1294 1254 1180 1118 869 748 830 967
11 12 15 17 9 10 9 11 7 9 13 17 13 111 1343 2056 2254 2592 2484 2284 1584 1552 1408 1218 1098 1160 1065 979 729 710 747 867
15 14 20 20 11 14 9 6 10 10 11 16 10 13 675 2176 2182 2217 2153 2423 2159 1931 1577 1408 971 920 936 857 778 658 671 755
30 25 18 23 18 12 10 4 8 12 15 20 14 9 1647 2256 2077 2043 2266 2259 1864 1763 1873 1310 881 809 731 712 751 542 476 655
21 22 18 22 15 12 7 5 4 11 14 9 9 5 5 1789 1807 1881 1962 1727 1650 1383 1183 752 518 517 553 578 395 298 401 474
13 15 10 9 11 11 5 10 5 8 10 18 18 14 7 4 340 618 575 521 496 430 431 470 433 238 296 216 212 251 274 214
14 10 6 7 11 9 1 6 7 6 9 6 12 15 21 15 10 7 3 6 9 6 4 1 0 0 0 0 0 0 0 0
10 10 10 9 10 5 4 3 4 1 5 6 14 8 8 16 15 15 15 9 10 9 1 1 2 2 2 1 0 1 1 1
8 8 6 9 12 11 5 6 5 5 2 3 5 3 3 3 5 14 7 10 3 3 2 6 8 3 5 0 0 4 2 1
8 12 10 16 19 17 13 11 8 4 3 2 2 0 0 1 1 0 2 3 5 5 6 5 5 4 2 0 0 2 2 3
8 11 11 14 10 9 7 2 4 5 4 4 3 3 1 0 0 1 1 1 4 7 7 3 2 3 1 1 0 3 4 3

GFSFLT1_con_sbcape_117.txt.gz
CAPE
0 0 0 0 0 0 0 0 0 0 0 29 997 1932 2522 2923 2850 2550 2824 3463 3365 3232 2724 2889 2795 2962 3075 3059 2725 2457 2255 2153
0 0 0 0 0 0 0 0 0 0 0 0 23 1726 2151 2723 2842 3081 2670 3117 3639 3445 3256 3283 2958 2627 2542 2862 2854 2725 2311 2398
0 0 0 0 0 0 0 0 0 0 0 0 0 6 1150 2272 2677 2866 3300 3430 3579 3685 3612 3331 3288 2558 1960 2202 2293 2681 2851 2767
0 0 0 0 0 0 0 0 0 0 1 0 0 16 7 1520 2343 2586 2998 3395 3607 3733 3706 3466 3281 2871 2504 1893 1808 1852 1920 2488
0 0 0 0 0 2 5 3 1 0 2 1 0 0 0 443 2095 2392 2405 3257 3482 3752 3819 3675 3328 2804 2337 1849 1648 1609 1381 1299
0 0 0 0 0 2 5 7 5 3 5 6 6 3 2 93 263 2328 2482 2879 3082 3572 3621 3550 3257 2749 2431 2107 1624 1518 1426 1252
0 0 0 0 0 3 7 8 7 6 6 7 8 12 6 16 302 1102 1993 2406 2679 3433 3226 3151 2824 2431 2396 2347 1838 1414 1469 1142
1 1 2 4 4 5 6 7 7 6 8 7 6 6 13 8 13 601 1830 2224 2514 2812 2765 2356 2607 2382 2148 2187 1530 1348 1368 1154
4 6 6 8 10 10 10 8 9 9 8 7 5 7 14 13 27 625 785 2215 2726 2829 2626 2030 1948 2371 1964 1740 1447 1338 1232 1205
8 11 12 11 14 13 13 10 10 10 7 11 6 12 15 14 67 1032 1478 2052 2724 2676 2477 1711 1595 1608 1748 1448 1274 1126 1258 1320
9 12 13 15 15 18 19 8 7 5 10 9 9 8 15 15 344 1415 2051 2262 2538 2323 2258 1650 1454 1407 1349 1305 1209 1061 974 1070
29 25 12 15 20 14 13 11 7 11 8 6 5 17 15 17 678 1798 2390 2277 1960 2094 2100 1612 1412 1323 1204 1181 1033 903 898 995
26 24 19 23 17 17 12 12 9 9 2 6 20 13 10 3 244 1475 2074 1712 1818 1999 1910 1811 1629 1185 1028 969 931 843 834 587
8 18 24 18 18 14 10 8 6 3 5 9 16 10 11 6 10 9 3 835 884 250 665 71 360 495 662 645 657 562 647 601
11 10 20 26 17 12 8 5 5 4 4 9 13 9 9 14 13 7 14 8 7 8 2 3 2 1 0 0 165 161 128 135
14 17 19 16 24 13 10 6 5 2 3 1 8 6 7 5 12 16 10 9 8 12 15 9 3 3 3 1 1 1 1 0
11 9 7 13 14 26 21 14 10 4 4 3 2 3 4 6 4 11 19 15 17 5 11 13 21 19 13 4 0 4 1 1
6 10 12 13 20 19 20 15 15 7 6 3 3 2 0 1 1 2 3 6 6 9 7 6 9 6 13 8 4 9 10 5
7 10 9 10 6 8 8 3 7 11 12 9 6 4 4 2 1 2 1 0 1 3 11 7 3 8 6 2 2 0 0 1

GFSFLT1_con_sbcape_120.txt.gz
CAPE
0 0 0 0 0 0 0 0 0 0 0 0 0 0 1977 2185 2224 2009 2377 2630 2313 2307 2799 2420 2206 2550 2741 2451 2395 2298 2263 1941
0 0 0 0 0 0 0 0 0 0 0 0 0 0 32 1985 2306 2323 2249 2359 2557 2345 2497 2601 2362 2032 2445 2638 2434 2239 2162 2032
0 0 0 0 0 0 0 0 0 0 0 0 0 0 0 0 1444 2304 2426 2326 2564 2673 2523 2431 2461 2057 2100 2763 2597 2254 2158 2062
0 0 0 0 0 0 0 0 0 0 0 0 0 0 0 0 0 432 2359 2433 2293 2869 2689 2380 2466 2370 2103 2263 2360 2313 1986 2025
0 0 0 0 0 0 0 0 0 0 1 1 2 0 0 0 0 0 1501 2287 2432 2612 2824 2792 2609 2634 2343 2174 2001 1886 2007 2045
0 0 0 0 0 0 0 0 0 0 3 6 4 5 0 0 0 0 1 651 2081 2292 2251 2538 2785 2436 2451 1939 1696 1655 1820 1676
0 0 0 0 0 0 1 0 4 2 0 0 5 2 1 2 0 0 0 54 993 1928 1943 2237 2605 2443 1682 791 1517 1548 1577 1516
0 0 1 2 3 4 7 5 8 8 7 4 5 3 4 4 2 1 0 0 203 1185 1677 2019 2464 2572 2006 1956 1649 1480 1468 1360
1 2 5 6 8 7 9 11 12 9 11 12 10 9 9 4 0 6 3 0 6 676 1228 1412 1998 2174 2157 1957 1891 1632 1388 1237
4 5 9 10 9 10 10 16 14 11 9 11 9 9 9 11 11 14 12 0 1 232 1130 1238 1513 2040 2077 1947 1708 1602 1315 1267
8 14 16 18 16 14 16 14 12 9 9 10 8 9 5 2 4 7 10 4 3 442 935 1131 1006 1520 1691 1560 1508 1278 1194 958
13 14 15 21 17 13 9 12 10 7 6 9 6 15 15 14 14 7 4 7 6 581 640 523 3 997 1290 1344 1327 1170 1102 996
17 15 9 10 5 1 11 7 5 4 7 10 12 12 12 10 12 14 4 9 137 930 1064 798 205 988 1184 1318 1172 1032 1062 902
9 12 9 7 8 1 6 5 3 1 1 8 11 14 11 10 13 11 10 5 7 5 2 2 2 2 918 1118 1096 1002 943 795
6 10 11 8 8 2 4 7 3 1 0 1 8 10 10 10 13 8 9 12 9 12 15 12 14 8 5 2 859 805 731 635
8 13 12 8 8 8 12 8 4 2 2 2 4 3 6 7 6 13 5 2 1 4 7 10 9 15 17 7 4 1 1 4
2 2 4 9 7 8 10 11 6 4 1 1 2 0 2 6 3 6 6 3 0 9 19 9 3 16 12 17 4 3 5 7
1 5 6 6 5 3 5 7 5 3 3 1 1 2 0 0 1 1 2 2 6 8 12 14 24 22 11 12 24 21 17 11
1 4 3 4 3 1 1 1 5 6 6 6 3 1 0 0 0 0 1 0 1 5 1 1 1 6 9 2 2 0 2 3

GFSFLT1_con_sbcape_123.txt.gz
CAPE
0 0 0 0 0 0 0 0 0 0 0 0 0 0 0 0 307 976 1196 1412 1738 1762 1934 1610 1779 1758 1509 1581 1473 1563 1570 1361
0 0 0 0 0 0 0 0 0 0 0 0 0 0 0 0 0 1 1056 1184 1452 1570 1723 1773 1522 1729 1745 1447 1531 1570 1531 1333
0 0 0 0 0 0 0 0 0 0 0 0 0 0 0 0 0 0 0 162 1418 1600 1297 1480 1904 1687 1302 1519 1627 1644 1626 1388
0 0 0 0 0 0 0 0 0 0 0 0 0 0 0 0 0 0 0 0 497 1425 1392 1329 1644 1816 1363 1495 1755 1649 1558 1358
0 0 0 0 0 0 0 0 0 0 0 0 0 0 0 0 0 0 0 0 0 62 1359 1542 1364 1639 1820 1200 1748 1731 1406 1379
0 0 0 0 0 0 0 0 0 0 0 0 0 0 0 0 0 0 0 0 0 0 117 1218 1668 1468 1897 1434 1296 1619 1277 1325
0 0 0 0 0 0 0 0 0 0 0 0 0 0 1 1 0 0 0 0 0 0 0 224 1153 1632 1618 1729 1520 1300 1252 1003
0 0 0 0 0 0 0 1 3 1 1 0 0 2 4 6 3 4 1 0 0 0 0 0 645 1085 1559 1723 1370 887 472 737
0 0 0 0 0 0 2 5 11 4 2 2 2 3 5 5 5 9 7 4 2 2 0 0 93 773 1130 1395 1338 746 7 62
1 0 0 0 0 2 7 13 10 9 8 7 5 4 4 3 3 3 3 1 3 1 4 0 0 302 785 946 1166 980 571 227
0 0 1 0 1 5 19 5 8 5 7 8 9 7 6 5 4 2 1 1 2 1 2 3 0 25 618 725 786 774 783 784
1 0 0 1 2 2 14 3 5 4 11 9 14 13 16 8 7 7 5 5 0 0 2 4 0 22 583 499 630 645 667 940
0 1 1 1 3 1 5 5 3 4 11 13 14 11 12 14 9 7 9 6 6 3 4 1 1 1 3 24 9 28 0 576
3 2 1 1 4 1 8 3 1 2 4 8 8 11 11 11 13 10 11 8 8 6 4 4 4 4 3 1 0 0 583 980
2 2 2 4 5 2 7 3 2 2 3 2 4 4 12 11 12 9 8 7 5 5 5 5 3 3 3 0 1 334 474 384
3 3 2 3 2 1 5 3 1 1 1 1 2 1 4 7 8 7 6 5 5 2 2 3 2 1 7 5 7 10 3 5
0 1 0 3 3 1 1 2 1 2 1 0 1 2 2 1 4 5 3 3 2 0 2 1 1 1 3 2 3 4 11 9
0 0 1 3 2 1 0 0 0 0 1 0 0 1 0 1 2 3 1 1 2 1 1 0 1 1 4 1 0 0 1 5
0 1 0 0 0 0 0 0 0 0 0 0 0 0 0 0 0 2 2 0 0 1 0 0 0 5 8 6 2 0 0 0

GFSFLT1_con_sbcape_126.txt.gz
CAPE
0 0 0 0 0 0 0 0 0 0 0 0 0 0 0 0 0 0 0 0 2 222 656 949 643 1221 1149 1360 1243 1151 1110 1031
0 0 0 0 0 0 0 0 0 0 0 0 0 0 0 0 0 0 0 0 0 0 368 1 310 1159 1219 1234 1248 1235 1230 1110
0 0 0 0 0 0 0 0 0 0 0 0 0 0 0 0 0 0 0 0 0 0 0 465 113 914 1052 842 1017 1163 1192 825
0 0 0 0 0 0 0 0 0 0 0 0 0 0 0 0 0 0 0 0 0 0 0 0 200 17 71 822 1139 1042 875 988
0 0 0 0 0 0 0 0 0 0 0 0 0 0 0 0 0 0 0 0 0 0 0 0 0 291 380 722 1017 1088 938 848
0 0 0 0 0 0 0 0 0 0 0 0 0 0 0 0 0 0 0 0 0 0 0 0 0 0 373 646 931 808 939 902
0 0 0 0 0 0 0 0 0 0 0 0 0 0 0 0 0 0 0 0 0 0 0 0 2 0 0 328 613 921 837 826
0 0 0 0 0 0 0 4 2 1 1 0 1 1 1 1 1 0 0 0 0 0 0 0 1 0 0 0 413 581 721 628
0 0 0 0 0 0 4 7 7 1 0 0 0 5 6 6 5 5 4 2 1 1 0 0 0 0 0 0 26 496 471 541
0 0 0 1 0 5 17 8 9 3 2 6 5 11 11 8 3 2 3 2 1 2 0 0 2 2 2 0 8 226 403 39
0 0 1 1 3 2 17 6 5 6 10 15 18 16 12 10 19 17 15 15 15 7 4 3 3 0 2 1 1 128 286 0
0 1 0 0 1 1 8 3 4 5 7 15 18 18 15 13 15 13 10 9 11 9 4 3 3 1 1 3 4 102 318 192
0 0 0 0 1 1 4 3 3 5 8 11 15 31 15 13 12 12 12 8 8 4 3 2 2 2 2 1 0 68 412 309
1 0 1 0 1 1 2 1 2 2 4 7 8 10 16 12 13 12 12 10 8 6 6 6 4 3 3 1 1 0 0 0
2 1 1 1 1 0 0 1 1 1 2 2 4 4 5 12 13 10 9 9 8 6 7 7 6 4 3 2 1 3 3 3
0 1 1 0 0 0 1 1 1 0 1 0 0 2 4 5 8 8 7 6 7 5 5 6 5 4 6 2 2 5 3 3
0 0 0 0 1 0 2 1 0 0 0 0 0 0 0 2 4 4 3 3 1 0 1 4 3 6 10 9 2 1 1 2
0 0 0 0 1 1 0 0 0 0 0 0 0 0 0 0 1 2 2 0 0 0 0 0 0 2 18 10 4 1 0 1
0 0 0 0 0 0 0 0 0 0 0 0 0 0 0 0 0 0 0 0 0 0 0 0 0 5 12 13 5 0 0 0

GFSFLT1_con_sbcape_129.txt.gz
CAPE
0 0 0 0 0 0 0 0 0 0 0 0 0 0 0 0 0 0 0 0 1 0 1 2 3 81 678 982 1121 1057 965 742
0 0 0 0 0 0 0 0 0 0 0 0 0 0 0 0 0 0 0 0 0 0 2 1 0 62 179 435 949 1152 964 690
0 0 0 0 0 0 0 0 0 0 0 0 0 0 0 0 0 0 0 0 0 0 0 0 0 8 86 141 510 598 850 754
0 0 0 0 0 0 0 0 0 0 0 0 0 0 0 0 0 0 0 0 0 0 0 0 0 1 17 4 131 540 444 778
0 0 0 0 0 0 0 0 0 0 0 0 0 0 0 0 0 0 0 0 0 0 0 0 0 1 1 20 64 44 147 388
0 0 0 0 0 0 0 1 0 0 0 0 0 0 0 0 0 0 0 0 0 0 0 3 0 2 5 11 13 12 23 225
0 0 0 0 0 0 0 4 0 1 0 1 0 0 0 1 1 1 0 0 0 0 0 0 4 7 7 13 11 91 122 232
0 0 1 1 1 1 1 3 2 2 0 0 0 1 3 8 6 5 4 4 3 0 0 2 1 0 0 0 0 6 99 346
0 0 1 0 0 0 1 4 6 5 9 8 8 12 18 16 13 12 5 4 3 1 1 2 0 3 0 0 0 0 0 119
0 0 1 2 4 2 5 8 4 3 9 11 11 20 23 16 13 17 15 21 17 11 11 11 3 0 0 2 0 0 2 8
0 1 0 2 1 0 1 1 5 9 9 7 11 12 22 19 17 12 14 16 14 11 15 6 2 3 3 4 1 1 1 0
0 0 0 0 0 0 3 2 4 2 5 4 7 8 18 19 15 12 12 13 11 10 8 6 3 6 11 9 5 1 3 10
0 0 0 0 0 0 1 2 2 2 6 4 7 9 22 14 14 12 14 15 14 13 11 9 6 4 3 4 15 14 15 26
0 0 0 0 0 0 0 0 0 1 2 4 3 4 10 11 10 12 10 10 10 8 9 9 6 6 5 4 3 2 1 2
0 0 0 0 0 0 0 0 0 0 2 1 1 1 5 7 9 7 8 6 5 7 7 9 9 5 5 5 5 5 4 4
0 0 0 0 0 0 0 0 0 0 0 0 0 0 2 3 5 3 3 3 4 1 4 4 6 10 14 5 5 3 3 3
0 0 0 0 0 0 1 0 0 0 0 0 0 0 0 2 1 2 1 1 0 0 0 1 1 6 19 18 5 5 4 3
0 0 0 0 0 0 0 0 0 0 0 0 0 0 0 0 0 0 0 0 0 0 0 0 1 2 19 16 11 2 1 1
0 0 0 0 0 0 0 0 0 0 0 0 0 0 0 0 0 0 0 0 0 0 0 0 3 8 12 12 7 0 0 1

GFSFLT1_con_sbcape_135.txt.gz
CAPE
0 0 0 0 0 0 0 0 0 0 0 0 0 0 0 0 0 0 0 0 0 0 0 0 0 0 5 9 1 0 0 14
0 0 0 0 0 0 0 0 0 0 0 0 0 0 0 0 0 0 0 0 0 0 0 0 0 0 0 1 7 12 7 10
0 0 0 0 0 0 0 0 0 0 0 0 0 0 0 0 0 0 1 1 0 0 0 0 0 0 0 0 2 80 118 323
0 0 0 0 0 0 0 0 0 0 0 0 0 0 0 0 0 1 1 4 4 4 3 1 2 4 1 2 2 4 32 217
0 0 0 0 0 0 0 0 0 0 1 1 2 1 0 1 3 3 5 5 8 7 7 6 3 4 3 0 0 1 4 21
0 0 0 0 0 0 0 2 1 3 6 7 7 7 6 6 9 6 7 6 5 4 4 15 12 11 11 9 8 12 13 4
0 0 0 0 0 0 0 1 2 3 5 4 7 9 12 22 18 14 15 21 23 14 12 7 16 14 7 13 14 9 6 10
0 0 0 0 0 0 0 1 3 3 4 5 5 3 8 12 22 27 19 27 24 12 22 24 22 12 9 13 8 8 9 13
0 0 0 0 0 0 0 2 2 3 5 4 3 7 11 28 27 33 28 24 28 22 24 19 22 25 23 23 17 13 9 26
0 0 0 0 0 0 2 3 3 4 5 6 4 8 14 26 17 14 16 14 34 23 21 18 18 12 17 25 24 18 11 16
0 0 0 0 0 0 1 1 3 5 5 7 7 13 14 21 14 11 10 12 27 26 21 12 9 10 10 5 10 16 19 21
0 0 0 0 0 0 3 3 2 5 5 6 9 11 11 11 11 11 11 12 22 26 25 12 7 7 8 6 11 11 9 11
0 0 0 0 0 3 4 2 2 3 2 4 7 6 5 8 11 13 13 11 16 16 25 13 10 9 8 7 7 7 8 6
0 0 0 0 0 3 3 2 2 1 1 1 3 3 4 7 9 12 13 14 11 11 13 14 12 11 9 7 7 8 8 10
0 0 0 0 1 2 2 1 2 0 1 1 2 2 6 7 10 14 15 16 15 13 10 11 12 8 8 9 7 6 6 8
0 0 0 0 0 0 0 0 1 0 0 0 2 2 2 3 8 8 14 14 16 15 12 8 15 17 17 8 9 7 6 5
0 0 0 0 0 0 0 0 0 0 0 1 0 0 3 5 6 7 8 9 18 10 15 15 13 17 12 8 7 7 6 5
0 0 0 0 0 0 0 0 0 0 0 0 0 0 1 4 3 4 10 12 12 13 12 12 11 11 5 6 5 9 11 17
0 0 0 0 0 0 0 0 0 0 0 0 0 0 1 1 4 6 9 13 17 17 18 15 21 13 3 2 3 17 17 14

GFSFLT1_con_sbcape_138.txt.gz
CAPE
0 0 0 0 0 0 0 0 0 0 0 0 0 0 0 0 0 0 0 0 0 0 0 0 0 0 0 0 12 101 86 7
0 0 0 0 0 0 0 0 0 0 0 0 0 0 0 0 0 0 0 0 0 0 0 0 0 0 0 0 0 4 55 127
0 0 0 0 0 0 0 0 0 0 0 0 0 0 0 0 0 0 1 1 4 3 2 1 0 0 0 2 2 0 0 160
0 0 0 0 0 0 0 0 0 0 0 0 0 0 0 0 0 0 1 5 7 11 12 10 8 7 3 3 5 4 0 49
0 0 0 0 0 0 0 0 0 0 1 0 3 1 0 1 3 3 7 11 10 13 10 9 11 15 15 9 4 7 3 0
0 0 0 0 0 0 0 0 0 0 1 2 4 5 8 8 10 12 12 12 11 7 13 10 5 27 7 9 15 23 16 5
0 0 0 0 0 0 0 0 0 0 1 2 7 9 12 12 13 12 10 14 14 16 20 35 27 26 26 26 9 16 17 23
0 0 0 0 0 0 0 0 0 0 2 4 6 8 9 15 19 19 27 21 16 24 22 27 21 16 25 32 38 29 14 21
0 0 0 0 0 0 0 0 0 1 4 5 6 9 12 20 19 22 25 25 23 24 28 23 18 16 22 23 27 25 20 23
0 0 0 0 0 0 0 0 1 3 8 6 8 9 15 16 21 21 27 27 29 29 31 23 17 16 15 18 20 21 28 24
0 0 0 0 0 0 0 0 2 6 6 5 6 11 20 22 21 24 22 22 27 19 33 30 22 12 7 12 13 8 27 30
1 0 0 0 0 0 1 3 2 3 5 5 9 14 18 19 19 22 24 26 18 18 30 20 20 15 9 10 9 2 5 4
0 2 1 1 2 2 4 2 1 3 3 6 11 15 13 14 17 20 26 25 23 16 28 17 11 10 12 11 11 11 10 9
0 0 0 1 1 3 3 2 1 3 3 3 5 8 11 13 13 16 16 15 19 19 19 17 14 12 11 12 13 11 11 13
0 0 0 0 1 3 2 2 2 2 2 2 3 7 12 11 11 9 7 8 9 13 26 29 17 12 11 11 10 10 10 11
0 0 0 0 0 0 0 0 1 2 1 1 3 5 7 6 7 7 7 8 9 9 6 10 20 23 21 15 15 8 9 8
0 0 0 0 0 0 0 0 0 0 0 1 2 3 3 4 6 6 8 7 9 9 23 22 22 32 5 8 13 25 18 13
0 0 0 0 0 0 0 0 0 0 0 0 1 2 2 3 5 5 6 9 8 12 20 22 20 11 3 5 5 29 24 22
0 0 0 0 0 0 0 0 0 0 0 0 1 1 2 3 3 4 6 11 9 12 16 22 16 15 1 1 2 10 27 25